| time (UTC) | temp C | wind direction | speed KPH | gust KPH | rain 1hr cm | rain 24hr cm | rain mn cm | humidity % | barometer mb |
| 20260505153113 | 25 | 70 | 6.4 | 16.1 | 0.00 | 0.00 | 0.00 | 45 | 1010.7 |
| 20260505152614 | 25 | 63 | 6.4 | 16.1 | 0.00 | 0.00 | 0.00 | 48 | 1010.7 |
| 20260505152114 | 25 | 78 | 4.8 | 14.5 | 0.00 | 0.00 | 0.00 | 48 | 1010.8 |
| 20260505151611 | 24 | 65 | 6.4 | 17.7 | 0.00 | 0.00 | 0.00 | 47 | 1010.8 |
| 20260505151112 | 24 | 83 | 8.0 | 17.7 | 0.00 | 0.00 | 0.00 | 46 | 1010.8 |
| 20260505150613 | 24 | 79 | 4.8 | 14.5 | 0.00 | 0.00 | 0.00 | 47 | 1010.7 |
| 20260505150326 | 23 | 66 | 4.8 | 12.9 | 0.00 | 0.00 | 0.00 | 50 | 1010.7 |
| 20260505130251 | 18 | 24 | 6.4 | 16.1 | 0.00 | 0.00 | 0.00 | 61 | 1011.6 |
| 20260505124731 | 18 | 86 | 6.4 | 16.1 | 0.00 | 0.00 | 0.00 | 64 | 1011.3 |
| 20260505124228 | 18 | 84 | 8.0 | 19.3 | 0.00 | 0.00 | 0.00 | 63 | 1011.2 |
| 20260505123930 | 18 | 70 | 6.4 | 19.3 | 0.00 | 0.00 | 0.00 | 62 | 1011.2 |
| 20260505123144 | 18 | 82 | 4.8 | 12.9 | 0.00 | 0.00 | 0.00 | 64 | 1011.1 |
| 20260505122850 | 17 | 68 | 4.8 | 12.9 | 0.00 | 0.00 | 0.00 | 64 | 1011.2 |
| 20260505122115 | 17 | 44 | 4.8 | 12.9 | 0.00 | 0.00 | 0.00 | 64 | 1011.2 |
| 20260505121615 | 17 | 60 | 4.8 | 12.9 | 0.00 | 0.00 | 0.00 | 64 | 1011.2 |
| 20260505121112 | 17 | 70 | 4.8 | 11.3 | 0.00 | 0.00 | 0.00 | 67 | 1011.3 |
| 20260505120606 | 17 | 41 | 4.8 | 11.3 | 0.00 | 0.00 | 0.00 | 66 | 1011.3 |
| 20260505120328 | 16 | 88 | 3.2 | 9.7 | 0.00 | 0.00 | 0.00 | 67 | 1011.3 |
| 20260505115527 | 16 | 84 | 1.6 | 4.8 | 0.00 | 0.00 | 0.00 | 68 | 1011.3 |
| 20260505115012 | 16 | 70 | 1.6 | 4.8 | 0.00 | 0.00 | 0.00 | 68 | 1011.2 |
| 20260505114510 | 16 | 87 | 1.6 | 6.4 | 0.00 | 0.00 | 0.00 | 69 | 1011.3 |
| 20260505113943 | 15 | 93 | 1.6 | 6.4 | 0.00 | 0.00 | 0.00 | 69 | 1011.2 |
| 20260505113442 | 15 | 86 | 1.6 | 3.2 | 0.00 | 0.00 | 0.00 | 70 | 1011.3 |
| 20260505112924 | 15 | 86 | 0.0 | 3.2 | 0.00 | 0.00 | 0.00 | 71 | 1011.1 |
| 20260505112405 | 14 | 86 | 0.0 | 1.6 | 0.00 | 0.00 | 0.00 | 71 | 1011.2 |
| 20260505111905 | 14 | 86 | 0.0 | 0.0 | 0.00 | 0.00 | 0.00 | 75 | 1011.1 |
| 20260505111353 | 13 | 86 | 0.0 | 0.0 | 0.00 | 0.00 | 0.00 | 76 | 1011.1 |
| 20260505110850 | 13 | 86 | 0.0 | 0.0 | 0.00 | 0.00 | 0.00 | 77 | 1011.3 |
| 20260505110351 | 12 | 86 | 0.0 | 0.0 | 0.00 | 0.00 | 0.00 | 77 | 1011.1 |
| 20260505110124 | 12 | 86 | 0.0 | 0.0 | 0.00 | 0.00 | 0.00 | 77 | 1011.2 |
| 20260505101707 | 12 | 86 | 0.0 | 0.0 | 0.00 | 0.00 | 0.00 | 77 | 1011.1 |
| 20260505101142 | 12 | 86 | 0.0 | 0.0 | 0.00 | 0.00 | 0.00 | 76 | 1011.1 |
| 20260505100613 | 12 | 86 | 0.0 | 0.0 | 0.00 | 0.00 | 0.00 | 75 | 1011.1 |
| 20260505100110 | 12 | 86 | 0.0 | 0.0 | 0.00 | 0.00 | 0.00 | 75 | 1011.3 |
| 20260505095553 | 12 | 86 | 0.0 | 0.0 | 0.00 | 0.00 | 0.00 | 75 | 1011.3 |
| 20260505095043 | 13 | 86 | 0.0 | 0.0 | 0.00 | 0.00 | 0.00 | 74 | 1011.2 |
| 20260505094542 | 13 | 86 | 0.0 | 0.0 | 0.00 | 0.00 | 0.00 | 73 | 1011.3 |
| 20260505094040 | 13 | 86 | 0.0 | 0.0 | 0.00 | 0.00 | 0.00 | 72 | 1011.2 |
| 20260505093514 | 14 | 86 | 1.6 | 3.2 | 0.00 | 0.00 | 0.00 | 71 | 1011.1 |
| 20260505093218 | 14 | 86 | 1.6 | 3.2 | 0.00 | 0.00 | 0.00 | 70 | 1010.9 |
| 20260505092418 | 14 | 84 | 1.6 | 3.2 | 0.00 | 0.00 | 0.00 | 70 | 1010.5 |
| 20260505091914 | 14 | 76 | 1.6 | 4.8 | 0.00 | 0.00 | 0.00 | 70 | 1010.4 |
| 20260505091341 | 14 | 77 | 1.6 | 4.8 | 0.00 | 0.00 | 0.00 | 69 | 1010.4 |
| 20260505090844 | 14 | 77 | 1.6 | 4.8 | 0.00 | 0.00 | 0.00 | 70 | 1010.3 |
| 20260505090335 | 14 | 69 | 1.6 | 6.4 | 0.00 | 0.00 | 0.00 | 70 | 1010.4 |
| 20260505090101 | 14 | 68 | 1.6 | 6.4 | 0.00 | 0.00 | 0.00 | 70 | 1010.2 |
| 20260505085322 | 14 | 76 | 0.0 | 3.2 | 0.00 | 0.00 | 0.00 | 71 | 1010.3 |
| 20260505084818 | 14 | 75 | 1.6 | 3.2 | 0.00 | 0.00 | 0.00 | 71 | 1010.2 |
| 20260505084316 | 14 | 76 | 1.6 | 3.2 | 0.00 | 0.00 | 0.00 | 70 | 1010.2 |
| 20260505083750 | 14 | 75 | 1.6 | 8.0 | 0.00 | 0.00 | 0.00 | 70 | 1010.2 |
| 20260505083224 | 14 | 73 | 3.2 | 9.7 | 0.00 | 0.00 | 0.00 | 70 | 1010.2 |
| 20260505082925 | 14 | 76 | 3.2 | 9.7 | 0.00 | 0.00 | 0.00 | 71 | 1010.3 |
| 20260505082152 | 14 | 79 | 3.2 | 8.0 | 0.00 | 0.00 | 0.00 | 71 | 1010.3 |
| 20260505081649 | 14 | 90 | 3.2 | 9.7 | 0.00 | 0.00 | 0.00 | 71 | 1010.3 |
| 20260505081148 | 14 | 80 | 3.2 | 9.7 | 0.00 | 0.00 | 0.00 | 71 | 1010.3 |
| 20260505080647 | 14 | 77 | 3.2 | 6.4 | 0.00 | 0.00 | 0.00 | 72 | 1010.3 |
| 20260505080149 | 13 | 88 | 3.2 | 4.8 | 0.00 | 0.00 | 0.00 | 72 | 1010.5 |
| 20260505075648 | 13 | 80 | 1.6 | 6.4 | 0.00 | 0.00 | 0.00 | 72 | 1010.5 |
| 20260505075146 | 13 | 91 | 1.6 | 6.4 | 0.00 | 0.00 | 0.00 | 71 | 1010.4 |
| 20260505074639 | 13 | 82 | 3.2 | 4.8 | 0.00 | 0.00 | 0.00 | 70 | 1010.5 |
| 20260505074126 | 13 | 69 | 1.6 | 4.8 | 0.00 | 0.00 | 0.00 | 69 | 1010.4 |
| 20260505073619 | 13 | 74 | 1.6 | 4.8 | 0.00 | 0.00 | 0.00 | 70 | 1010.3 |
| 20260505073116 | 13 | 82 | 0.0 | 3.2 | 0.00 | 0.00 | 0.00 | 70 | 1010.3 |
| 20260505072546 | 13 | 82 | 0.0 | 0.0 | 0.00 | 0.00 | 0.00 | 70 | 1010.3 |
| 20260505072043 | 13 | 82 | 0.0 | 0.0 | 0.00 | 0.00 | 0.00 | 69 | 1010.4 |
| 20260505071514 | 13 | 82 | 0.0 | 3.2 | 0.00 | 0.00 | 0.00 | 68 | 1010.4 |
| 20260505071240 | 14 | 82 | 0.0 | 3.2 | 0.00 | 0.00 | 0.00 | 68 | 1010.3 |
| 20260505071117 | 14 | 82 | 1.6 | 3.2 | 0.00 | 0.00 | 0.00 | 68 | 1010.3 |
| 20260505070006 | 14 | 82 | 0.0 | 0.0 | 0.00 | 0.00 | 0.00 | 68 | 1010.3 |
| 20260505065504 | 14 | 82 | 0.0 | 0.0 | 0.00 | 0.00 | 0.00 | 67 | 1010.3 |
| 20260505065004 | 14 | 82 | 1.6 | 3.2 | 0.00 | 0.00 | 0.00 | 67 | 1010.2 |
| 20260505064501 | 14 | 82 | 1.6 | 3.2 | 0.00 | 0.00 | 0.00 | 67 | 1010.3 |
| 20260505063951 | 14 | 82 | 1.6 | 4.8 | 0.00 | 0.00 | 0.00 | 67 | 1010.3 |
| 20260505063443 | 15 | 82 | 3.2 | 4.8 | 0.00 | 0.00 | 0.00 | 66 | 1010.3 |
| 20260505062942 | 15 | 92 | 3.2 | 9.7 | 0.00 | 0.00 | 0.00 | 66 | 1010.3 |
| 20260505062413 | 15 | 63 | 3.2 | 9.7 | 0.00 | 0.00 | 0.00 | 66 | 1010.4 |
| 20260505061912 | 15 | 75 | 4.8 | 9.7 | 0.00 | 0.00 | 0.00 | 66 | 1010.4 |
| 20260505061631 | 15 | 79 | 4.8 | 9.7 | 0.00 | 0.00 | 0.00 | 65 | 1010.4 |
| 20260505060901 | 15 | 61 | 3.2 | 9.7 | 0.00 | 0.00 | 0.00 | 65 | 1010.3 |
| 20260505060336 | 15 | 40 | 4.8 | 8.0 | 0.00 | 0.00 | 0.00 | 65 | 1010.2 |
| 20260505055834 | 15 | 66 | 3.2 | 8.0 | 0.00 | 0.00 | 0.00 | 66 | 1010.3 |
| 20260505055321 | 15 | 58 | 3.2 | 6.4 | 0.00 | 0.00 | 0.00 | 66 | 1010.3 |
| 20260505054818 | 15 | 71 | 3.2 | 11.3 | 0.00 | 0.00 | 0.00 | 66 | 1010.2 |
| 20260505054254 | 15 | 75 | 3.2 | 11.3 | 0.00 | 0.00 | 0.00 | 66 | 1010.3 |
| 20260505054000 | 15 | 63 | 3.2 | 6.4 | 0.00 | 0.00 | 0.00 | 66 | 1010.3 |
| 20260505053205 | 15 | 76 | 3.2 | 6.4 | 0.00 | 0.00 | 0.00 | 66 | 1010.4 |
| 20260505052640 | 15 | 51 | 3.2 | 8.0 | 0.00 | 0.00 | 0.00 | 66 | 1010.4 |
| 20260505052406 | 15 | 58 | 3.2 | 8.0 | 0.00 | 0.00 | 0.00 | 66 | 1010.4 |
| 20260505051635 | 15 | 57 | 3.2 | 8.0 | 0.00 | 0.00 | 0.00 | 66 | 1010.4 |
| 20260505051357 | 15 | 33 | 4.8 | 11.3 | 0.00 | 0.00 | 0.00 | 65 | 1010.4 |
| 20260505050829 | 15 | 65 | 3.2 | 11.3 | 0.00 | 0.00 | 0.00 | 65 | 1010.6 |
| 20260505041417 | 15 | 37 | 3.2 | 4.8 | 0.00 | 0.00 | 0.00 | 61 | 1010.5 |
| 20260505041134 | 15 | 75 | 1.6 | 6.4 | 0.00 | 0.00 | 0.00 | 60 | 1010.5 |
| 20260505040402 | 15 | 60 | 1.6 | 4.8 | 0.00 | 0.00 | 0.00 | 60 | 1010.4 |
| 20260505035845 | 15 | 57 | 1.6 | 4.8 | 0.00 | 0.00 | 0.00 | 60 | 1010.3 |
| 20260505035341 | 15 | 22 | 1.6 | 6.4 | 0.00 | 0.00 | 0.00 | 59 | 1010.5 |
| 20260505034806 | 15 | 53 | 1.6 | 6.4 | 0.00 | 0.00 | 0.00 | 58 | 1010.5 |
| 20260505034308 | 15 | 51 | 1.6 | 6.4 | 0.00 | 0.00 | 0.00 | 58 | 1010.4 |
| 20260505034037 | 15 | 82 | 1.6 | 6.4 | 0.00 | 0.00 | 0.00 | 58 | 1010.5 |
| 20260505033308 | 16 | 62 | 3.2 | 6.4 | 0.00 | 0.00 | 0.00 | 57 | 1010.5 |
| 20260505032739 | 16 | 55 | 1.6 | 6.4 | 0.00 | 0.00 | 0.00 | 57 | 1010.5 |
| 20260505032235 | 16 | 59 | 1.6 | 6.4 | 0.00 | 0.00 | 0.00 | 57 | 1010.5 |
| 20260505031708 | 16 | 76 | 1.6 | 6.4 | 0.00 | 0.00 | 0.00 | 56 | 1010.6 |
| 20260505031138 | 16 | 79 | 1.6 | 4.8 | 0.00 | 0.00 | 0.00 | 55 | 1010.7 |
| 20260505030843 | 16 | 75 | 3.2 | 9.7 | 0.00 | 0.00 | 0.00 | 54 | 1010.6 |
| 20260505030043 | 16 | 82 | 3.2 | 9.7 | 0.00 | 0.00 | 0.00 | 54 | 1010.6 |
| 20260505025544 | 16 | 69 | 1.6 | 8.0 | 0.00 | 0.00 | 0.00 | 54 | 1010.8 |
| 20260505025019 | 16 | 62 | 3.2 | 6.4 | 0.00 | 0.00 | 0.00 | 53 | 1010.8 |
| 20260505024511 | 16 | 70 | 1.6 | 6.4 | 0.00 | 0.00 | 0.00 | 52 | 1010.8 |
| 20260505024011 | 16 | 62 | 1.6 | 3.2 | 0.00 | 0.00 | 0.00 | 52 | 1010.9 |
| 20260505023443 | 16 | 91 | 0.0 | 3.2 | 0.00 | 0.00 | 0.00 | 51 | 1010.8 |
| 20260505023420 | 16 | 91 | 1.6 | 3.2 | 0.00 | 0.00 | 0.00 | 51 | 1010.8 |
| 20260505022421 | 17 | 91 | 1.6 | 3.2 | 0.00 | 0.00 | 0.00 | 50 | 1010.8 |
| 20260505021858 | 17 | 88 | 1.6 | 4.8 | 0.00 | 0.00 | 0.00 | 49 | 1010.8 |
| 20260505021336 | 17 | 82 | 3.2 | 4.8 | 0.00 | 0.00 | 0.00 | 49 | 1010.8 |
| 20260505020826 | 17 | 44 | 1.6 | 4.8 | 0.00 | 0.00 | 0.00 | 50 | 1010.8 |
| 20260505020305 | 17 | 50 | 1.6 | 8.0 | 0.00 | 0.00 | 0.00 | 49 | 1010.9 |
| 20260505015806 | 17 | 35 | 1.6 | 8.0 | 0.00 | 0.00 | 0.00 | 50 | 1010.9 |
| 20260505015245 | 17 | 64 | 1.6 | 6.4 | 0.00 | 0.00 | 0.00 | 49 | 1010.9 |
| 20260505014747 | 17 | 76 | 1.6 | 6.4 | 0.00 | 0.00 | 0.00 | 49 | 1010.8 |
| 20260505014246 | 17 | 86 | 1.6 | 3.2 | 0.00 | 0.00 | 0.00 | 49 | 1010.6 |
| 20260505014016 | 16 | 86 | 1.6 | 3.2 | 0.00 | 0.00 | 0.00 | 49 | 1010.7 |
| 20260505013515 | 16 | 86 | 0.0 | 3.2 | 0.00 | 0.00 | 0.00 | 49 | 1010.7 |
| 20260505012727 | 16 | 86 | 0.0 | 0.0 | 0.00 | 0.00 | 0.00 | 49 | 1010.7 |
| 20260505012501 | 17 | 86 | 0.0 | 0.0 | 0.00 | 0.00 | 0.00 | 49 | 1010.6 |
| 20260505011944 | 17 | 86 | 0.0 | 0.0 | 0.00 | 0.00 | 0.00 | 48 | 1010.6 |
| 20260505011211 | 17 | 86 | 0.0 | 1.6 | 0.00 | 0.00 | 0.00 | 48 | 1010.5 |
| 20260505010710 | 17 | 86 | 0.0 | 1.6 | 0.00 | 0.00 | 0.00 | 48 | 1010.5 |
| 20260505010155 | 17 | 86 | 0.0 | 3.2 | 0.00 | 0.00 | 0.00 | 47 | 1010.2 |
| 20260505005901 | 17 | 86 | 0.0 | 3.2 | 0.00 | 0.00 | 0.00 | 46 | 1010.2 |
| 20260505005111 | 17 | 78 | 0.0 | 3.2 | 0.00 | 0.00 | 0.00 | 46 | 1010.2 |
| 20260505004841 | 17 | 78 | 0.0 | 3.2 | 0.00 | 0.00 | 0.00 | 46 | 1010.1 |
| 20260505004047 | 17 | 78 | 0.0 | 6.4 | 0.00 | 0.00 | 0.00 | 46 | 1010.2 |
| 20260505003548 | 18 | 70 | 1.6 | 6.4 | 0.00 | 0.00 | 0.00 | 45 | 1010.1 |
| 20260505003021 | 18 | 80 | 1.6 | 3.2 | 0.00 | 0.00 | 0.00 | 45 | 1010.1 |
| 20260505002459 | 18 | 81 | 1.6 | 4.8 | 0.00 | 0.00 | 0.00 | 45 | 1010.0 |
| 20260505001935 | 18 | 81 | 0.0 | 3.2 | 0.00 | 0.00 | 0.00 | 45 | 1010.0 |
| 20260505001412 | 18 | 61 | 0.0 | 1.6 | 0.00 | 0.00 | 0.00 | 45 | 1010.1 |
| 20260505000851 | 18 | 61 | 1.6 | 6.4 | 0.00 | 0.00 | 0.00 | 44 | 1009.9 |
| 20260505000333 | 18 | 62 | 1.6 | 6.4 | 0.00 | 0.00 | 0.00 | 44 | 1009.9 |
| 20260504235807 | 18 | 70 | 1.6 | 6.4 | 0.00 | 0.00 | 0.00 | 43 | 1009.9 |
| 20260504235245 | 19 | 81 | 1.6 | 6.4 | 0.00 | 0.00 | 0.00 | 43 | 1009.9 |
| 20260504234746 | 19 | 77 | 1.6 | 6.4 | 0.00 | 0.00 | 0.00 | 43 | 1009.8 |
| 20260504234246 | 19 | 77 | 3.2 | 11.3 | 0.00 | 0.00 | 0.00 | 42 | 1009.6 |
| 20260504233729 | 20 | 56 | 4.8 | 11.3 | 0.00 | 0.00 | 0.00 | 42 | 1009.6 |
| 20260504233230 | 20 | 43 | 4.8 | 11.3 | 0.00 | 0.00 | 0.00 | 41 | 1009.5 |
| 20260504232726 | 20 | 51 | 4.8 | 12.9 | 0.00 | 0.00 | 0.00 | 41 | 1009.4 |
| 20260504232201 | 20 | 61 | 4.8 | 14.5 | 0.00 | 0.00 | 0.00 | 41 | 1009.4 |
| 20260504231635 | 20 | 58 | 6.4 | 19.3 | 0.00 | 0.00 | 0.00 | 40 | 1009.4 |
| 20260504231114 | 20 | 91 | 6.4 | 19.3 | 0.00 | 0.00 | 0.00 | 40 | 1009.4 |
| 20260504230557 | 20 | 58 | 6.4 | 16.1 | 0.00 | 0.00 | 0.00 | 40 | 1009.3 |
| 20260504230057 | 20 | 45 | 6.4 | 17.7 | 0.00 | 0.00 | 0.00 | 40 | 1009.3 |
| 20260504225559 | 20 | 63 | 6.4 | 17.7 | 0.00 | 0.00 | 0.00 | 39 | 1009.3 |
| 20260504225101 | 21 | 41 | 8.0 | 25.7 | 0.00 | 0.00 | 0.00 | 40 | 1009.3 |
| 20260504224531 | 21 | 56 | 8.0 | 25.7 | 0.00 | 0.00 | 0.00 | 39 | 1009.3 |
| 20260504224507 | 21 | 49 | 8.0 | 17.7 | 0.00 | 0.00 | 0.00 | 39 | 1009.3 |
| 20260504223501 | 21 | 65 | 8.0 | 17.7 | 0.00 | 0.00 | 0.00 | 39 | 1009.3 |
| 20260504223230 | 21 | 38 | 8.0 | 17.7 | 0.00 | 0.00 | 0.00 | 38 | 1009.3 |
| 20260504222429 | 21 | 90 | 8.0 | 20.9 | 0.00 | 0.00 | 0.00 | 38 | 1009.3 |
| 20260504222156 | 21 | 54 | 8.0 | 20.9 | 0.00 | 0.00 | 0.00 | 39 | 1009.3 |
| 20260504221425 | 21 | 70 | 6.4 | 16.1 | 0.00 | 0.00 | 0.00 | 39 | 1009.3 |
| 20260504220858 | 21 | 82 | 8.0 | 25.7 | 0.00 | 0.00 | 0.00 | 37 | 1009.3 |
| 20260504220349 | 21 | 59 | 8.0 | 25.7 | 0.00 | 0.00 | 0.00 | 38 | 1009.4 |
| 20260504215852 | 21 | 37 | 6.4 | 16.1 | 0.00 | 0.00 | 0.00 | 38 | 1009.4 |
| 20260504215617 | 21 | 67 | 8.0 | 22.5 | 0.00 | 0.00 | 0.00 | 36 | 1009.4 |
| 20260504214848 | 21 | 84 | 9.7 | 22.5 | 0.00 | 0.00 | 0.00 | 36 | 1009.5 |
| 20260504214346 | 22 | 64 | 9.7 | 20.9 | 0.00 | 0.00 | 0.00 | 38 | 1009.6 |
| 20260504213846 | 22 | 29 | 8.0 | 19.3 | 0.00 | 0.00 | 0.00 | 37 | 1009.5 |
| 20260504213617 | 22 | 53 | 6.4 | 14.5 | 0.00 | 0.00 | 0.00 | 37 | 1009.5 |
| 20260504212846 | 22 | 69 | 6.4 | 14.5 | 0.00 | 0.00 | 0.00 | 37 | 1009.6 |
| 20260504212319 | 22 | 77 | 8.0 | 17.7 | 0.00 | 0.00 | 0.00 | 37 | 1009.5 |
| 20260504211817 | 22 | 62 | 9.7 | 22.5 | 0.00 | 0.00 | 0.00 | 38 | 1009.6 |
| 20260504211321 | 22 | 93 | 9.7 | 22.5 | 0.00 | 0.00 | 0.00 | 37 | 1009.5 |
| 20260504210817 | 22 | 88 | 9.7 | 27.4 | 0.00 | 0.00 | 0.00 | 36 | 1009.6 |
| 20260504210318 | 22 | 39 | 9.7 | 27.4 | 0.00 | 0.00 | 0.00 | 36 | 1009.7 |
| 20260504210025 | 22 | 83 | 8.0 | 17.7 | 0.00 | 0.00 | 0.00 | 37 | 1009.7 |
| 20260504205252 | 22 | 79 | 8.0 | 12.9 | 0.00 | 0.00 | 0.00 | 37 | 1009.7 |
| 20260504205017 | 22 | 84 | 9.7 | 25.7 | 0.00 | 0.00 | 0.00 | 37 | 1009.7 |
| 20260504204243 | 21 | 65 | 9.7 | 25.7 | 0.00 | 0.00 | 0.00 | 37 | 1009.8 |
| 20260504203744 | 22 | 29 | 8.0 | 22.5 | 0.00 | 0.00 | 0.00 | 37 | 1009.7 |
| 20260504203513 | 22 | 89 | 8.0 | 19.3 | 0.00 | 0.00 | 0.00 | 38 | 1009.7 |
| 20260504203016 | 22 | 84 | 6.4 | 19.3 | 0.00 | 0.00 | 0.00 | 37 | 1009.7 |
| 20260504202213 | 22 | 47 | 6.4 | 19.3 | 0.00 | 0.00 | 0.00 | 38 | 1009.6 |
| 20260504201717 | 22 | 68 | 9.7 | 27.4 | 0.00 | 0.00 | 0.00 | 37 | 1009.8 |
| 20260504201440 | 22 | 89 | 8.0 | 27.4 | 0.00 | 0.00 | 0.00 | 37 | 1009.8 |
| 20260504200701 | 22 | 68 | 8.0 | 22.5 | 0.00 | 0.00 | 0.00 | 37 | 1009.8 |
| 20260504200159 | 22 | 70 | 9.7 | 22.5 | 0.00 | 0.00 | 0.00 | 35 | 1009.9 |
| 20260504195905 | 22 | 93 | 9.7 | 20.9 | 0.00 | 0.00 | 0.00 | 37 | 1010.0 |
| 20260504195130 | 22 | 79 | 9.7 | 20.9 | 0.00 | 0.00 | 0.00 | 34 | 1010.0 |
| 20260504194855 | 22 | 84 | 8.0 | 22.5 | 0.00 | 0.00 | 0.00 | 35 | 1009.9 |
| 20260504194352 | 22 | 56 | 6.4 | 22.5 | 0.00 | 0.00 | 0.00 | 37 | 1010.0 |
| 20260504193625 | 22 | 80 | 8.0 | 19.3 | 0.00 | 0.00 | 0.00 | 37 | 1010.1 |
| 20260504193109 | 22 | 67 | 9.7 | 25.7 | 0.00 | 0.00 | 0.00 | 38 | 1010.0 |
| 20260504192608 | 21 | 51 | 9.7 | 25.7 | 0.00 | 0.00 | 0.00 | 36 | 1010.3 |
| 20260504192111 | 21 | 80 | 8.0 | 22.5 | 0.00 | 0.00 | 0.00 | 38 | 1010.2 |
| 20260504191543 | 21 | 85 | 8.0 | 20.9 | 0.00 | 0.00 | 0.00 | 37 | 1010.2 |
| 20260504191026 | 21 | 93 | 8.0 | 20.9 | 0.00 | 0.00 | 0.00 | 34 | 1010.3 |
| 20260504190526 | 21 | 87 | 8.0 | 17.7 | 0.00 | 0.00 | 0.00 | 36 | 1010.6 |
| 20260504190027 | 22 | 45 | 8.0 | 20.9 | 0.00 | 0.00 | 0.00 | 38 | 1010.6 |
| 20260504185458 | 21 | 79 | 9.7 | 20.9 | 0.00 | 0.00 | 0.00 | 38 | 1010.7 |
| 20260504184931 | 21 | 70 | 9.7 | 29.0 | 0.00 | 0.00 | 0.00 | 38 | 1010.7 |
| 20260504184417 | 21 | 69 | 9.7 | 29.0 | 0.00 | 0.00 | 0.00 | 37 | 1010.7 |
| 20260504184145 | 21 | 70 | 9.7 | 22.5 | 0.00 | 0.00 | 0.00 | 36 | 1010.8 |
| 20260504183419 | 21 | 37 | 9.7 | 22.5 | 0.00 | 0.00 | 0.00 | 35 | 1010.8 |
| 20260504183124 | 21 | 35 | 9.7 | 19.3 | 0.00 | 0.00 | 0.00 | 38 | 1011.0 |
| 20260504182353 | 21 | 38 | 8.0 | 17.7 | 0.00 | 0.00 | 0.00 | 36 | 1011.0 |
| 20260504181851 | 21 | 88 | 11.3 | 29.0 | 0.00 | 0.00 | 0.00 | 37 | 1011.1 |
| 20260504181346 | 21 | 66 | 12.9 | 29.0 | 0.00 | 0.00 | 0.00 | 37 | 1011.1 |
| 20260504180831 | 21 | 81 | 9.7 | 25.7 | 0.00 | 0.00 | 0.00 | 37 | 1011.1 |
| 20260504180322 | 21 | 72 | 9.7 | 16.1 | 0.00 | 0.00 | 0.00 | 40 | 1011.2 |
| 20260504175805 | 21 | 67 | 9.7 | 22.5 | 0.00 | 0.00 | 0.00 | 36 | 1011.4 |
| 20260504175307 | 21 | 74 | 9.7 | 22.5 | 0.00 | 0.00 | 0.00 | 39 | 1011.3 |
| 20260504174802 | 20 | 56 | 11.3 | 22.5 | 0.00 | 0.00 | 0.00 | 38 | 1011.4 |
| 20260504174233 | 21 | 58 | 9.7 | 22.5 | 0.00 | 0.00 | 0.00 | 38 | 1011.5 |
| 20260504173724 | 21 | 98 | 8.0 | 20.9 | 0.00 | 0.00 | 0.00 | 36 | 1011.4 |
| 20260504173229 | 20 | 43 | 9.7 | 24.1 | 0.00 | 0.00 | 0.00 | 38 | 1011.5 |
| 20260504172713 | 20 | 25 | 11.3 | 24.1 | 0.00 | 0.00 | 0.00 | 40 | 1011.5 |
| 20260504172211 | 20 | 29 | 9.7 | 22.5 | 0.00 | 0.00 | 0.00 | 40 | 1011.5 |
| 20260504171651 | 20 | 60 | 11.3 | 25.7 | 0.00 | 0.00 | 0.00 | 38 | 1011.7 |
| 20260504171148 | 20 | 30 | 11.3 | 25.7 | 0.00 | 0.00 | 0.00 | 36 | 1011.8 |
| 20260504170646 | 20 | 29 | 9.7 | 19.3 | 0.00 | 0.00 | 0.00 | 39 | 1011.8 |
| 20260504170411 | 20 | 47 | 8.0 | 20.9 | 0.00 | 0.00 | 0.00 | 38 | 1011.7 |